Wind from 230 at 6 knots

Air temperature 7.0° C
Visibility: greater than 5.4 NM
Dewpoint 6.0° C

Last reported at 2014-Apr-25 05:20 UTC.
Time now 2014-Apr-25 06:17 UTC

Location: N 62°34' E 006°07'.
View on Google Maps.

See reports from other nearby stations

Tides Stations Pressure Air Temp Water Temp Dewpoint Dewpoint depression Visibility Wind Speed Wind Dir Waves Ship positions

  
sailing weather and tide predictions

ALESUND / VIGRA weather

date/time (UTC)wind fromknots sea level pressurealtimeterstation pressurevisibilityair tempwater tempwave heightnotes
2014-Apr-25 05:20 230 6 5.4 7.0
2014-Apr-25 04:50 240 7 7.0
2014-Apr-25 04:20 230 8 7.0
2014-Apr-25 03:50 220 7 7.0
2014-Apr-25 03:20 200 5 5.4 5.0
2014-Apr-25 02:50 190 5 5.4 4.0
2014-Apr-25 02:20 170 4 5.4 5.0
2014-Apr-25 01:50 210 6 5.4 5.0
2014-Apr-25 01:20 200 5 5.4 4.0
2014-Apr-25 00:50 190 5 5.4 5.0
2014-Apr-25 00:20 5.4 5.0
2014-Apr-24 23:50 100 3 5.4 6.0
2014-Apr-24 23:20 080 7 5.4 7.0
2014-Apr-24 22:50 080 10 5.4 7.0
2014-Apr-24 22:20 080 10 5.4 8.0
2014-Apr-24 21:50 070 10 8.0
2014-Apr-24 21:20 080 13 8.0
2014-Apr-24 20:50 270 1 9.0
2014-Apr-24 20:20 040 4 9.0
2014-Apr-24 19:50 070 15 9.0
2014-Apr-24 19:20 040 8 9.0
2014-Apr-24 18:50 070 13 9.0
2014-Apr-24 18:20 070 15 10.0
2014-Apr-24 17:50 070 15 10.0
2014-Apr-24 17:20 060 14 10.0
2014-Apr-24 16:50 060 17 10.0
2014-Apr-24 16:20 060 14 11.0
2014-Apr-24 15:50 060 12 11.0
2014-Apr-24 15:20 060 11 12.0
2014-Apr-24 14:50 050 12 13.0
2014-Apr-24 14:20 050 10 13.0
2014-Apr-24 13:50 040 9 14.0
2014-Apr-24 13:20 050 9 14.0
2014-Apr-24 12:20 030 6 14.0
2014-Apr-24 11:50 040 5 14.0
2014-Apr-24 11:20 030 5 14.0
2014-Apr-24 10:50 030 6 14.0
2014-Apr-24 10:20 030 5 14.0
2014-Apr-24 09:50 030 5 13.0
2014-Apr-24 09:20 020 7 13.0
2014-Apr-24 08:50 030 4 13.0
2014-Apr-24 08:20 130 3 13.0
2014-Apr-24 07:50 150 3 12.0
2014-Apr-24 07:20 170 4 11.0
2014-Apr-24 06:50 160 3 10.0
2014-Apr-24 06:20 160 5 9.0
2014-Apr-24 05:50 170 4 8.0
2014-Apr-24 05:20 140 4 8.0
2014-Apr-24 04:50 160 5 5.0
2014-Apr-24 04:20 150 4 4.0
2014-Apr-24 03:50 150 4 5.0
2014-Apr-24 03:20 5.4 4.0
2014-Apr-24 02:50 230 5 5.4 4.0
2014-Apr-24 02:20 270 3 5.4 4.0
2014-Apr-24 01:50 290 4 5.4 4.0
2014-Apr-24 01:20 280 3 5.4 5.0
2014-Apr-24 00:50 180 4 5.4 5.0
2014-Apr-24 00:20 170 5 5.4 4.0
2014-Apr-23 23:50 150 3 5.4 5.0
2014-Apr-23 23:20 210 5 5.4 5.0
2014-Apr-23 22:50 5.4 6.0
2014-Apr-23 22:20 100 3 5.4 6.0
2014-Apr-23 21:50 080 2 5.4 6.0
2014-Apr-23 21:20 5.4 7.0
2014-Apr-23 20:50 270 2 8.0
2014-Apr-23 20:20 260 4 8.0
2014-Apr-23 19:50 280 3 8.0
2014-Apr-23 19:20 290 3 10.0
2014-Apr-23 18:50 300 2 12.0
2014-Apr-23 18:20 290 4 12.0
2014-Apr-23 17:50 010 4 15.0
2014-Apr-23 17:20 020 4 16.0
2014-Apr-23 16:50 030 3 16.0
2014-Apr-23 16:20 020 4 16.0
2014-Apr-23 15:50 040 4 16.0
2014-Apr-23 15:20 050 6 16.0
2014-Apr-23 14:50 050 7 16.0
2014-Apr-23 14:20 050 7 16.0
2014-Apr-23 13:50 040 6 16.0
2014-Apr-23 13:20 050 8 16.0
2014-Apr-23 12:50 040 6 15.0
2014-Apr-23 12:20 030 6 16.0
2014-Apr-23 11:50 040 6 15.0
2014-Apr-23 11:20 040 7 15.0
2014-Apr-23 10:50 060 8 14.0
2014-Apr-23 10:20 050 6 13.0
2014-Apr-23 09:50 060 8 14.0
2014-Apr-23 09:20 050 6 5.413.0
2014-Apr-23 08:50 060 6 12.0
2014-Apr-23 08:20 060 9 11.0
2014-Apr-23 07:50 060 8 10.0
2014-Apr-23 07:20 070 12 9.0
2014-Apr-23 06:50 070 11 9.0
2014-Apr-23 06:20 070 14 8.0